This demonstration page uses our WeatherBlox Daily Observations layout. Learn more.

41.86663, -103.66717

Hourly Observations for June 21, 2019

Temp ( °F °C ) Dew Point ( °F °C ) Humidity (%) Winds ( mph kmh ) Pressure ( in mb ) Visibility ( mi km ) Precip ( " mm )
12:53 am 00:53 Clear 55 12.8 51 10.6 87 87 WNW 13 20 29.64 1004 10 16.0934 0 0
1:12 am 01:12 Clear 55 13 50 10 82 82 VRB 3 6 29.7 1006 10 16.0934 0 0
1:53 am 01:53 Clear 54 12.2 51 10.6 90 90 SSW 8 13 29.65 1004 10 16.0934 0 0
2:53 am 02:53 Clear 54 12.2 53 11.7 97 97 SSE 7 11 29.65 1004 10 16.0934 0 0
3:53 am 03:53 Clear 54 12.2 52 11.1 93 93 Calm 29.65 1004 10 16.0934 0 0
4:53 am 04:53 Partly Cloudy 54 12.2 54 12.2 100 100 E 5 7 29.66 1004 10 16.0934 0 0
5:53 am 05:53 Sunny 55 12.8 51 10.6 87 87 WNW 6 9 29.65 1004 10 16.0934 0 0
6:53 am 06:53 Mostly Cloudy 58 14.4 50 10 75 75 WNW 10 17 29.67 1005 10 16.0934 0 0
7:53 am 07:53 Mostly Cloudy 59 15 49 9.4 69 69 WNW 13 20 29.7 1006 10 16.0934 0 0
8:53 am 08:53 Cloudy with Light Rain 56 13.3 50 10 81 81 WNW 12 19 29.74 1007 10 16.0934 0.01 0.254
9:53 am 09:53 Cloudy with Light Rain 54 12.2 47 8.3 77 77 WNW 20 31 29.75 1008 10 16.0934 0.01 0.254
10:53 am 10:53 Cloudy with Rain 51 10.6 51 10.6 100 100 WNW 7 11 29.81 1009 3 4.82802 0.07 1.778
11:53 am 11:53 Cloudy with Light Rain 53 11.7 53 11.7 100 100 WNW 13 20 29.84 1011 10 16.0934 0.07 1.778
12:53 pm 12:53 Mostly Cloudy 59 15 51 10.6 75 75 NW 14 22 29.82 1010 10 16.0934 0 0.0254
1:53 pm 13:53 Cloudy 58 14.4 47 8.3 67 67 WNW 12 19 29.87 1012 10 16.0934 0 0
2:53 pm 14:53 Cloudy with Light Rain 54 12.2 49 9.4 83 83 NW 6 9 29.89 1012 7 11.26538 0.01 0.254
3:53 pm 15:53 Cloudy 55 12.8 49 9.4 80 80 WSW 3 6 29.89 1012 10 16.0934 0.01 0.254
4:53 pm 16:53 Cloudy 58 14.4 49 9.4 72 72 E 3 6 29.87 1012 10 16.0934 0 0
5:53 pm 17:53 Cloudy 57 13.9 50 10 78 78 SSE 6 9 29.89 1012 10 16.0934 0 0
6:53 pm 18:53 Cloudy 55 12.8 50 10 83 83 SE 7 11 29.91 1013 10 16.0934 0 0
7:53 pm 19:53 Cloudy 55 12.8 50 10 83 83 ESE 9 15 29.9 1013 10 16.0934 0 0
8:53 pm 20:53 Cloudy 54 12.2 51 10.6 90 90 E 8 13 29.91 1013 10 16.0934 0 0
9:53 pm 21:53 Cloudy 54 12.2 50 10 87 87 ENE 5 7 29.95 1014 10 16.0934 0 0
10:53 pm 22:53 Cloudy 54 12.2 49 9.4 83 83 S 3 6 29.97 1015 10 16.0934 0 0
11:53 pm 23:53 Mostly Cloudy 54 12.2 50 10 87 87 E 7 11 29.93 1013 10 16.0934 0 0

Powered by AerisWeather